Time,TemperatureF,DewpointF,PressureIn,WindDirection,WindDirectionDegrees,WindSpeedMPH,WindSpeedGustMPH,Humidity,HourlyPrecipIn,Conditions,Clouds,dailyrainin,SolarRadiationWatts/m^2,SoftwareType,DateUTC
2013-02-17 00:00:00,34.7,30.0,30.03,West,274,0.0,6.0,83,0.00,,,0.05,0.0,meteohub,2013-02-17 05:00:00,
2013-02-17 00:05:00,34.5,30.2,30.03,NW,315,1.0,6.0,84,0.00,,,0.00,0.0,meteohub,2013-02-17 05:05:00,
2013-02-17 00:10:00,34.3,30.4,30.03,NW,307,1.0,7.0,85,0.00,,,0.00,0.0,meteohub,2013-02-17 05:10:00,
2013-02-17 00:15:00,34.3,30.6,30.03,NW,310,3.0,7.0,86,0.00,,,0.00,0.0,meteohub,2013-02-17 05:15:00,
2013-02-17 00:20:00,34.2,30.4,30.03,West,263,3.0,4.0,86,0.00,,,0.00,0.0,meteohub,2013-02-17 05:20:00,
2013-02-17 00:25:00,34.0,30.6,30.03,West,271,1.0,4.0,87,0.00,,,0.00,0.0,meteohub,2013-02-17 05:25:00,
2013-02-17 00:30:00,33.8,30.0,30.03,West,281,0.0,4.0,86,0.00,,,0.00,0.0,meteohub,2013-02-17 05:30:00,
2013-02-17 00:35:00,33.8,30.0,30.03,West,281,1.0,4.0,86,0.00,,,0.00,0.0,meteohub,2013-02-17 05:35:00,
2013-02-17 00:41:00,33.8,29.8,30.04,NW,309,1.0,4.0,85,0.00,,,0.00,0.0,meteohub,2013-02-17 05:41:00,
2013-02-17 00:46:00,33.6,29.3,30.04,NNW,336,0.0,5.0,84,0.00,,,0.00,0.0,meteohub,2013-02-17 05:46:00,
2013-02-17 00:51:00,33.6,28.9,30.04,WNW,302,3.0,5.0,83,0.00,,,0.00,0.0,meteohub,2013-02-17 05:51:00,
2013-02-17 00:56:00,33.6,28.9,30.04,West,267,2.0,5.0,83,0.00,,,0.00,0.0,meteohub,2013-02-17 05:56:00,
2013-02-17 01:01:00,33.6,28.8,30.04,NW,305,0.0,5.0,82,0.00,,,0.00,0.0,meteohub,2013-02-17 06:01:00,
2013-02-17 01:06:00,33.4,28.6,30.05,WSW,257,3.0,5.0,82,0.00,,,0.00,0.0,meteohub,2013-02-17 06:06:00,
2013-02-17 01:11:00,33.4,28.6,30.05,West,259,1.0,5.0,82,0.00,,,0.00,0.0,meteohub,2013-02-17 06:11:00,
2013-02-17 01:16:00,33.4,28.2,30.05,West,279,5.0,5.0,81,0.00,,,0.00,0.0,meteohub,2013-02-17 06:16:00,
2013-02-17 01:21:00,33.3,27.7,30.05,West,269,3.0,6.0,80,0.00,,,0.00,0.0,meteohub,2013-02-17 06:21:00,
2013-02-17 01:26:00,33.4,27.7,30.05,WSW,238,2.0,6.0,79,0.00,,,0.00,0.0,meteohub,2013-02-17 06:26:00,
2013-02-17 01:31:00,33.4,27.3,30.05,WNW,290,3.0,7.0,78,0.00,,,0.00,0.0,meteohub,2013-02-17 06:31:00,
2013-02-17 01:36:00,33.4,27.0,30.05,West,263,2.0,7.0,77,0.00,,,0.00,0.0,meteohub,2013-02-17 06:36:00,
2013-02-17 01:41:00,33.4,26.8,30.05,WSW,237,3.0,7.0,76,0.00,,,0.00,0.0,meteohub,2013-02-17 06:41:00,
2013-02-17 01:46:00,33.4,26.8,30.05,NW,306,7.0,7.0,76,0.00,,,0.00,0.0,meteohub,2013-02-17 06:46:00,
2013-02-17 01:51:00,33.3,26.6,30.06,WSW,244,5.0,7.0,76,0.00,,,0.00,0.0,meteohub,2013-02-17 06:51:00,
2013-02-17 01:56:00,33.3,26.6,30.06,WSW,248,2.0,7.0,76,0.00,,,0.00,0.0,meteohub,2013-02-17 06:56:00,
2013-02-17 02:01:00,33.3,26.2,30.06,SW,230,2.0,7.0,75,0.00,,,0.00,0.0,meteohub,2013-02-17 07:01:00,
2013-02-17 02:06:00,33.3,26.2,30.06,North,355,4.0,7.0,75,0.00,,,0.00,0.0,meteohub,2013-02-17 07:06:00,
2013-02-17 02:11:00,33.3,26.2,30.06,West,277,2.0,7.0,75,0.00,,,0.00,0.0,meteohub,2013-02-17 07:11:00,
2013-02-17 02:16:00,33.1,25.7,30.06,West,279,3.0,7.0,74,0.00,,,0.00,0.0,meteohub,2013-02-17 07:16:00,
2013-02-17 02:21:00,33.1,25.7,30.06,West,266,2.0,6.0,74,0.00,,,0.00,0.0,meteohub,2013-02-17 07:21:00,
2013-02-17 02:26:00,32.9,25.5,30.06,WSW,258,4.0,6.0,74,0.00,,,0.00,0.0,meteohub,2013-02-17 07:26:00,
2013-02-17 02:31:00,32.7,25.3,30.06,NW,306,1.0,6.0,74,0.00,,,0.00,0.0,meteohub,2013-02-17 07:31:00,
2013-02-17 02:36:00,32.7,25.0,30.06,SW,232,3.0,6.0,73,0.00,,,0.00,0.0,meteohub,2013-02-17 07:36:00,
2013-02-17 02:41:00,32.7,24.6,30.06,West,263,3.0,8.0,72,0.00,,,0.00,0.0,meteohub,2013-02-17 07:41:00,
2013-02-17 02:46:00,32.7,24.6,30.06,NW,304,0.0,8.0,72,0.00,,,0.00,0.0,meteohub,2013-02-17 07:46:00,
2013-02-17 02:51:00,32.5,24.4,30.06,WNW,285,4.0,8.0,72,0.00,,,0.00,0.0,meteohub,2013-02-17 07:51:00,
2013-02-17 02:56:00,32.4,24.3,30.06,NW,323,2.0,6.0,72,0.00,,,0.00,0.0,meteohub,2013-02-17 07:56:00,
2013-02-17 03:01:00,32.4,24.3,30.06,WSW,254,2.0,6.0,72,0.00,,,0.00,0.0,meteohub,2013-02-17 08:01:00,
2013-02-17 03:06:00,32.2,24.3,30.06,WNW,292,5.0,5.0,72,0.00,,,0.00,0.0,meteohub,2013-02-17 08:06:00,
2013-02-17 03:11:00,32.2,24.3,30.06,West,271,2.0,5.0,72,0.00,,,0.00,0.0,meteohub,2013-02-17 08:11:00,
2013-02-17 03:16:00,32.2,24.3,30.06,West,278,1.0,6.0,72,0.00,,,0.00,0.0,meteohub,2013-02-17 08:16:00,
2013-02-17 03:21:00,32.2,23.9,30.07,West,266,3.0,7.0,71,0.00,,,0.00,0.0,meteohub,2013-02-17 08:21:00,
2013-02-17 03:26:00,32.2,23.9,30.07,West,277,1.0,8.0,71,0.00,,,0.00,0.0,meteohub,2013-02-17 08:26:00,
2013-02-17 03:31:00,31.8,23.5,30.07,NW,311,1.0,8.0,71,0.00,,,0.00,0.0,meteohub,2013-02-17 08:31:00,
2013-02-17 03:36:00,31.8,23.5,30.07,NW,306,2.0,8.0,71,0.00,,,0.00,0.0,meteohub,2013-02-17 08:36:00,
2013-02-17 03:41:00,31.8,23.9,30.07,West,275,2.0,5.0,72,0.00,,,0.00,0.0,meteohub,2013-02-17 08:41:00,
2013-02-17 03:46:00,31.6,23.7,30.07,WNW,295,1.0,5.0,72,0.00,,,0.00,0.0,meteohub,2013-02-17 08:46:00,
2013-02-17 03:51:00,31.5,23.5,30.07,West,280,2.0,5.0,72,0.00,,,0.00,0.0,meteohub,2013-02-17 08:51:00,
2013-02-17 03:56:00,31.5,23.5,30.07,West,281,0.0,7.0,72,0.00,,,0.00,0.0,meteohub,2013-02-17 08:56:00,
2013-02-17 04:01:00,31.3,23.4,30.07,WNW,285,2.0,7.0,72,0.00,,,0.00,0.0,meteohub,2013-02-17 09:01:00,
2013-02-17 04:06:00,31.3,23.4,30.08,WSW,257,3.0,7.0,72,0.00,,,0.00,0.0,meteohub,2013-02-17 09:06:00,
2013-02-17 04:11:00,31.3,23.4,30.08,WNW,291,2.0,6.0,72,0.00,,,0.00,0.0,meteohub,2013-02-17 09:11:00,
2013-02-17 04:16:00,31.1,23.2,30.08,WNW,286,0.0,6.0,72,0.00,,,0.00,0.0,meteohub,2013-02-17 09:16:00,
2013-02-17 04:21:00,30.9,23.4,30.08,West,269,0.0,5.0,73,0.00,,,0.00,0.0,meteohub,2013-02-17 09:21:00,
2013-02-17 04:26:00,30.7,23.2,30.08,WSW,242,0.0,5.0,73,0.00,,,0.00,0.0,meteohub,2013-02-17 09:26:00,
2013-02-17 04:31:00,30.7,23.2,30.08,NW,319,2.0,5.0,73,0.00,,,0.00,0.0,meteohub,2013-02-17 09:31:00,
2013-02-17 04:36:00,30.7,22.8,30.09,WSW,252,2.0,6.0,72,0.00,,,0.00,0.0,meteohub,2013-02-17 09:36:00,
2013-02-17 04:42:00,30.7,22.8,30.09,WNW,291,1.0,6.0,72,0.00,,,0.00,0.0,meteohub,2013-02-17 09:42:00,
2013-02-17 04:47:00,30.7,22.8,30.09,NW,317,2.0,6.0,72,0.00,,,0.00,0.0,meteohub,2013-02-17 09:47:00,
2013-02-17 04:52:00,30.6,22.6,30.09,West,276,1.0,5.0,72,0.00,,,0.00,0.0,meteohub,2013-02-17 09:52:00,
2013-02-17 04:57:00,30.6,22.6,30.09,West,281,0.0,6.0,72,0.00,,,0.00,0.0,meteohub,2013-02-17 09:57:00,
2013-02-17 05:02:00,30.4,22.8,30.09,West,277,3.0,6.0,73,0.00,,,0.00,0.0,meteohub,2013-02-17 10:02:00,
2013-02-17 05:07:00,30.4,22.8,30.09,WSW,245,1.0,5.0,73,0.00,,,0.00,0.0,meteohub,2013-02-17 10:07:00,
2013-02-17 05:12:00,30.0,22.5,30.10,NNW,333,0.0,6.0,73,0.00,,,0.00,0.0,meteohub,2013-02-17 10:12:00,
2013-02-17 05:17:00,30.0,22.5,30.10,West,263,0.0,6.0,73,0.00,,,0.00,0.0,meteohub,2013-02-17 10:17:00,
2013-02-17 05:22:00,30.0,22.5,30.10,WNW,285,0.0,6.0,73,0.00,,,0.00,0.0,meteohub,2013-02-17 10:22:00,
2013-02-17 05:27:00,30.0,22.5,30.11,WNW,298,3.0,4.0,73,0.00,,,0.00,0.0,meteohub,2013-02-17 10:27:00,
2013-02-17 05:32:00,30.0,22.5,30.11,NW,304,0.0,4.0,73,0.00,,,0.00,0.0,meteohub,2013-02-17 10:32:00,
2013-02-17 05:37:00,29.8,22.3,30.11,WSW,252,0.0,4.0,73,0.00,,,0.00,0.0,meteohub,2013-02-17 10:37:00,
2013-02-17 05:42:00,29.8,22.6,30.11,WNW,301,0.0,4.0,74,0.00,,,0.00,0.0,meteohub,2013-02-17 10:42:00,
2013-02-17 05:47:00,29.7,22.5,30.12,WNW,300,2.0,4.0,74,0.00,,,0.00,0.0,meteohub,2013-02-17 10:47:00,
2013-02-17 05:52:00,29.7,22.1,30.12,WSW,257,0.0,4.0,73,0.00,,,0.00,0.0,meteohub,2013-02-17 10:52:00,
2013-02-17 05:57:00,29.5,22.3,30.12,WSW,257,0.0,4.0,74,0.00,,,0.00,0.0,meteohub,2013-02-17 10:57:00,
2013-02-17 06:02:00,29.5,22.3,30.12,WNW,283,0.0,4.0,74,0.00,,,0.00,0.0,meteohub,2013-02-17 11:02:00,
2013-02-17 06:07:00,29.5,22.3,30.13,West,277,0.0,3.0,74,0.00,,,0.00,0.0,meteohub,2013-02-17 11:07:00,
2013-02-17 06:12:00,29.3,22.1,30.13,NW,320,1.0,3.0,74,0.00,,,0.00,0.0,meteohub,2013-02-17 11:12:00,
2013-02-17 06:17:00,29.3,22.1,30.13,West,275,2.0,4.0,74,0.00,,,0.00,0.0,meteohub,2013-02-17 11:17:00,
2013-02-17 06:22:00,29.3,22.1,30.14,WSW,256,0.0,4.0,74,0.00,,,0.00,0.0,meteohub,2013-02-17 11:22:00,
2013-02-17 06:27:00,29.3,22.1,30.14,West,269,2.0,4.0,74,0.00,,,0.00,0.0,meteohub,2013-02-17 11:27:00,
2013-02-17 06:32:00,29.3,22.1,30.14,West,263,1.0,5.0,74,0.00,,,0.00,0.0,meteohub,2013-02-17 11:32:00,
2013-02-17 06:37:00,29.1,21.9,30.14,WNW,290,1.0,6.0,74,0.00,,,0.00,0.0,meteohub,2013-02-17 11:37:00,
2013-02-17 06:42:00,28.9,22.1,30.14,WNW,290,0.0,6.0,75,0.00,,,0.00,0.0,meteohub,2013-02-17 11:42:00,
2013-02-17 06:47:00,28.8,22.1,30.15,WNW,290,1.0,6.0,76,0.00,,,0.00,0.0,meteohub,2013-02-17 11:47:00,
2013-02-17 06:52:00,28.6,21.9,30.15,WNW,288,0.0,3.0,76,0.00,,,0.00,0.0,meteohub,2013-02-17 11:52:00,
2013-02-17 06:57:00,28.6,21.9,30.15,WNW,288,1.0,2.0,76,0.00,,,0.00,0.0,meteohub,2013-02-17 11:57:00,
2013-02-17 07:02:00,28.8,22.1,30.15,West,267,2.0,4.0,76,0.00,,,0.00,0.0,meteohub,2013-02-17 12:02:00,
2013-02-17 07:07:00,28.8,21.9,30.16,West,266,1.0,4.0,75,0.00,,,0.00,5.0,meteohub,2013-02-17 12:07:00,
2013-02-17 07:12:00,28.9,21.7,30.16,West,277,1.0,4.0,74,0.00,,,0.00,9.0,meteohub,2013-02-17 12:12:00,
2013-02-17 07:17:00,28.9,21.7,30.16,WNW,284,2.0,3.0,74,0.00,,,0.00,11.0,meteohub,2013-02-17 12:17:00,
2013-02-17 07:22:00,29.1,21.6,30.17,West,278,2.0,5.0,73,0.00,,,0.00,16.0,meteohub,2013-02-17 12:22:00,
2013-02-17 07:27:00,29.1,21.6,30.16,West,278,2.0,5.0,73,0.00,,,0.00,19.0,meteohub,2013-02-17 12:27:00,
2013-02-17 07:32:00,29.5,21.6,30.17,WSW,254,2.0,5.0,72,0.00,,,0.00,25.0,meteohub,2013-02-17 12:32:00,
2013-02-17 07:37:00,29.7,21.7,30.17,West,272,1.0,5.0,72,0.00,,,0.00,28.0,meteohub,2013-02-17 12:37:00,
2013-02-17 07:42:00,29.8,21.6,30.17,West,275,1.0,7.0,71,0.00,,,0.00,49.0,meteohub,2013-02-17 12:42:00,
2013-02-17 07:47:00,30.2,21.6,30.17,West,263,1.0,7.0,70,0.00,,,0.00,67.0,meteohub,2013-02-17 12:47:00,
2013-02-17 07:52:00,30.6,21.9,30.17,West,271,1.0,7.0,70,0.00,,,0.00,86.0,meteohub,2013-02-17 12:52:00,
2013-02-17 07:57:00,30.7,21.7,30.18,WNW,293,3.0,5.0,69,0.00,,,0.00,151.0,meteohub,2013-02-17 12:57:00,
2013-02-17 08:02:00,31.1,21.4,30.19,WNW,284,3.0,7.0,67,0.00,,,0.00,171.0,meteohub,2013-02-17 13:02:00,
2013-02-17 08:07:00,31.5,21.7,30.19,WSW,252,2.0,8.0,67,0.00,,,0.00,192.0,meteohub,2013-02-17 13:07:00,
2013-02-17 08:12:00,31.8,21.7,30.19,WNW,292,3.0,8.0,66,0.00,,,0.00,214.0,meteohub,2013-02-17 13:12:00,
2013-02-17 08:17:00,32.2,22.1,30.20,WNW,286,2.0,8.0,66,0.00,,,0.00,237.0,meteohub,2013-02-17 13:17:00,
2013-02-17 08:22:00,32.4,21.6,30.20,WSW,252,4.0,8.0,64,0.00,,,0.00,258.0,meteohub,2013-02-17 13:22:00,
2013-02-17 08:27:00,32.7,21.9,30.20,West,268,4.0,8.0,64,0.00,,,0.00,278.0,meteohub,2013-02-17 13:27:00,
2013-02-17 08:32:00,33.3,21.7,30.20,West,275,2.0,7.0,62,0.00,,,0.00,297.0,meteohub,2013-02-17 13:32:00,
2013-02-17 08:37:00,33.4,21.0,30.20,West,278,1.0,7.0,60,0.00,,,0.00,313.0,meteohub,2013-02-17 13:37:00,
2013-02-17 08:42:00,33.6,21.2,30.20,NW,306,0.0,8.0,60,0.00,,,0.00,330.0,meteohub,2013-02-17 13:42:00,
2013-02-17 08:47:00,34.2,21.4,30.21,WNW,293,3.0,9.0,59,0.00,,,0.00,350.0,meteohub,2013-02-17 13:47:00,
2013-02-17 08:52:00,34.2,20.8,30.21,WSW,238,6.0,9.0,58,0.00,,,0.00,367.0,meteohub,2013-02-17 13:52:00,
2013-02-17 08:57:00,34.5,20.8,30.21,WNW,300,4.0,10.0,57,0.00,,,0.00,387.0,meteohub,2013-02-17 13:57:00,
2013-02-17 09:02:00,35.2,21.6,30.21,NW,305,3.0,10.0,57,0.00,,,0.00,404.0,meteohub,2013-02-17 14:02:00,
2013-02-17 09:07:00,35.8,21.2,30.21,West,266,1.0,10.0,55,0.00,,,0.00,422.0,meteohub,2013-02-17 14:07:00,
2013-02-17 09:12:00,36.3,22.1,30.21,North,5,2.0,8.0,56,0.00,,,0.00,436.0,meteohub,2013-02-17 14:12:00,
2013-02-17 09:17:00,36.9,22.3,30.21,WSW,247,2.0,8.0,55,0.00,,,0.00,452.0,meteohub,2013-02-17 14:17:00,
2013-02-17 09:22:00,36.5,20.1,30.21,WNW,300,3.0,6.0,51,0.00,,,0.00,471.0,meteohub,2013-02-17 14:22:00,
2013-02-17 09:27:00,36.3,20.3,30.20,WSW,255,7.0,11.0,52,0.00,,,0.00,487.0,meteohub,2013-02-17 14:27:00,
2013-02-17 09:32:00,37.0,20.7,30.20,WNW,292,2.0,11.0,51,0.00,,,0.00,503.0,meteohub,2013-02-17 14:32:00,
2013-02-17 09:37:00,37.6,21.0,30.20,NNW,341,2.0,7.0,51,0.00,,,0.00,520.0,meteohub,2013-02-17 14:37:00,
2013-02-17 09:42:00,37.6,20.7,30.21,NNW,338,4.0,8.0,50,0.00,,,0.00,538.0,meteohub,2013-02-17 14:42:00,
2013-02-17 09:47:00,37.9,19.6,30.20,WNW,296,2.0,8.0,47,0.00,,,0.00,548.0,meteohub,2013-02-17 14:47:00,
2013-02-17 09:52:00,38.7,20.7,30.20,NW,308,3.0,8.0,48,0.00,,,0.00,563.0,meteohub,2013-02-17 14:52:00,
2013-02-17 09:57:00,39.0,19.9,30.20,North,0,2.0,8.0,46,0.00,,,0.00,577.0,meteohub,2013-02-17 14:57:00,
2013-02-17 10:02:00,39.6,20.5,30.20,West,275,2.0,8.0,46,0.00,,,0.00,592.0,meteohub,2013-02-17 15:02:00,
2013-02-17 10:07:00,39.4,18.7,30.21,SW,226,2.0,7.0,43,0.00,,,0.00,606.0,meteohub,2013-02-17 15:07:00,
2013-02-17 10:12:00,39.7,18.5,30.21,SW,227,3.0,11.0,42,0.00,,,0.00,619.0,meteohub,2013-02-17 15:12:00,
2013-02-17 10:17:00,39.4,18.1,30.21,West,269,1.0,11.0,42,0.00,,,0.00,635.0,meteohub,2013-02-17 15:17:00,
2013-02-17 10:22:00,39.9,19.8,30.21,NW,323,3.0,10.0,44,0.00,,,0.00,643.0,meteohub,2013-02-17 15:22:00,
2013-02-17 10:27:00,40.3,19.0,30.21,WNW,295,3.0,11.0,42,0.00,,,0.00,657.0,meteohub,2013-02-17 15:27:00,
2013-02-17 10:32:00,40.5,18.0,30.22,West,276,9.0,11.0,40,0.00,,,0.00,671.0,meteohub,2013-02-17 15:32:00,
2013-02-17 10:37:00,40.8,18.3,30.22,SSW,203,2.0,11.0,40,0.00,,,0.00,679.0,meteohub,2013-02-17 15:37:00,
2013-02-17 10:42:00,40.8,18.3,30.21,WSW,242,4.0,11.0,40,0.00,,,0.00,687.0,meteohub,2013-02-17 15:42:00,
2013-02-17 10:47:00,41.4,18.9,30.21,NW,319,4.0,9.0,40,0.00,,,0.00,700.0,meteohub,2013-02-17 15:47:00,
2013-02-17 10:52:00,41.7,18.0,30.21,WNW,300,5.0,11.0,38,0.00,,,0.00,714.0,meteohub,2013-02-17 15:52:00,
2013-02-17 10:57:00,41.9,15.6,30.21,West,263,2.0,11.0,34,0.00,,,0.00,724.0,meteohub,2013-02-17 15:57:00,
2013-02-17 11:02:00,42.1,15.1,30.21,North,0,6.0,11.0,33,0.00,,,0.00,726.0,meteohub,2013-02-17 16:02:00,
2013-02-17 11:07:00,42.4,16.7,30.21,WNW,296,3.0,10.0,35,0.00,,,0.00,735.0,meteohub,2013-02-17 16:07:00,
2013-02-17 11:12:00,42.4,16.7,30.21,NW,319,7.0,14.0,35,0.00,,,0.00,745.0,meteohub,2013-02-17 16:12:00,
2013-02-17 11:17:00,42.8,17.1,30.21,NW,313,2.0,14.0,35,0.00,,,0.00,756.0,meteohub,2013-02-17 16:17:00,
2013-02-17 11:22:00,43.2,15.3,30.21,SW,236,2.0,14.0,32,0.00,,,0.00,761.0,meteohub,2013-02-17 16:22:00,
2013-02-17 11:27:00,43.0,14.4,30.21,WNW,285,6.0,12.0,31,0.00,,,0.00,772.0,meteohub,2013-02-17 16:27:00,
2013-02-17 11:32:00,43.2,15.3,30.21,West,269,9.0,12.0,32,0.00,,,0.00,773.0,meteohub,2013-02-17 16:32:00,
2013-02-17 11:37:00,43.3,15.4,30.21,SW,230,3.0,12.0,32,0.00,,,0.00,780.0,meteohub,2013-02-17 16:37:00,
2013-02-17 11:42:00,43.2,13.1,30.21,NW,325,3.0,13.0,29,0.00,,,0.00,789.0,meteohub,2013-02-17 16:42:00,
2013-02-17 11:47:00,43.2,13.8,30.21,NW,313,5.0,13.0,30,0.00,,,0.00,793.0,meteohub,2013-02-17 16:47:00,
2013-02-17 11:52:00,44.1,14.5,30.21,WNW,283,2.0,13.0,30,0.00,,,0.00,798.0,meteohub,2013-02-17 16:52:00,
2013-02-17 11:57:00,44.6,14.4,30.21,SW,223,4.0,12.0,29,0.00,,,0.00,800.0,meteohub,2013-02-17 16:57:00,
2013-02-17 12:02:00,44.4,12.6,30.21,North,11,3.0,10.0,27,0.00,,,0.00,807.0,meteohub,2013-02-17 17:02:00,
2013-02-17 12:07:00,45.0,12.9,30.20,West,260,3.0,10.0,27,0.00,,,0.00,807.0,meteohub,2013-02-17 17:07:00,
2013-02-17 12:12:00,45.0,13.8,30.21,NNE,27,2.0,10.0,28,0.00,,,0.00,814.0,meteohub,2013-02-17 17:12:00,
2013-02-17 12:17:00,44.8,14.5,30.20,NE,46,6.0,9.0,29,0.00,,,0.00,814.0,meteohub,2013-02-17 17:17:00,
2013-02-17 12:22:00,45.7,14.4,30.20,ENE,58,1.0,9.0,28,0.00,,,0.00,812.0,meteohub,2013-02-17 17:22:00,
2013-02-17 12:27:00,45.7,13.6,30.20,WNW,300,4.0,8.0,27,0.00,,,0.00,819.0,meteohub,2013-02-17 17:27:00,
2013-02-17 12:32:00,45.0,13.8,30.20,WSW,252,4.0,9.0,28,0.00,,,0.00,817.0,meteohub,2013-02-17 17:32:00,
2013-02-17 12:37:00,45.1,14.7,30.20,WNW,300,1.0,11.0,29,0.00,,,0.00,814.0,meteohub,2013-02-17 17:37:00,
2013-02-17 12:43:00,45.3,14.9,30.20,NE,52,1.0,12.0,29,0.00,,,0.00,814.0,meteohub,2013-02-17 17:43:00,
2013-02-17 12:48:00,45.9,12.9,30.20,North,355,5.0,12.0,26,0.00,,,0.00,812.0,meteohub,2013-02-17 17:48:00,
2013-02-17 12:53:00,45.7,14.4,30.20,WNW,283,2.0,13.0,28,0.00,,,0.00,812.0,meteohub,2013-02-17 17:53:00,
2013-02-17 12:58:00,45.3,14.2,30.19,NNE,16,6.0,13.0,28,0.00,,,0.00,810.0,meteohub,2013-02-17 17:58:00,
2013-02-17 13:03:00,45.3,14.2,30.19,WNW,291,6.0,13.0,28,0.00,,,0.00,803.0,meteohub,2013-02-17 18:03:00,
2013-02-17 13:08:00,45.9,14.5,30.19,NNE,14,2.0,11.0,28,0.00,,,0.00,802.0,meteohub,2013-02-17 18:08:00,
2013-02-17 13:13:00,45.9,12.9,30.19,NNW,344,7.0,11.0,26,0.00,,,0.00,800.0,meteohub,2013-02-17 18:13:00,
2013-02-17 13:18:00,45.7,14.4,30.19,NNW,331,4.0,10.0,28,0.00,,,0.00,795.0,meteohub,2013-02-17 18:18:00,
2013-02-17 13:23:00,45.7,12.7,30.19,WSW,255,4.0,10.0,26,0.00,,,0.00,793.0,meteohub,2013-02-17 18:23:00,
2013-02-17 13:28:00,46.4,14.2,30.19,WNW,282,2.0,10.0,27,0.00,,,0.00,788.0,meteohub,2013-02-17 18:28:00,
2013-02-17 13:33:00,46.8,14.5,30.19,NW,317,8.0,9.0,27,0.00,,,0.00,779.0,meteohub,2013-02-17 18:33:00,
2013-02-17 13:38:00,46.2,14.0,30.18,NW,307,2.0,9.0,27,0.00,,,0.00,775.0,meteohub,2013-02-17 18:38:00,
2013-02-17 13:43:00,46.2,14.0,30.18,WNW,297,4.0,12.0,27,0.00,,,0.00,766.0,meteohub,2013-02-17 18:43:00,
2013-02-17 13:48:00,46.4,14.2,30.18,West,279,2.0,13.0,27,0.00,,,0.00,761.0,meteohub,2013-02-17 18:48:00,
2013-02-17 13:53:00,46.4,14.2,30.18,WNW,288,2.0,13.0,27,0.00,,,0.00,752.0,meteohub,2013-02-17 18:53:00,
2013-02-17 13:58:00,46.4,13.3,30.18,West,277,7.0,13.0,26,0.00,,,0.00,745.0,meteohub,2013-02-17 18:58:00,
2013-02-17 14:03:00,46.0,13.1,30.18,West,281,4.0,11.0,26,0.00,,,0.00,740.0,meteohub,2013-02-17 19:03:00,
2013-02-17 14:08:00,46.2,15.6,30.18,NW,313,3.0,12.0,29,0.00,,,0.00,728.0,meteohub,2013-02-17 19:08:00,
2013-02-17 14:13:00,46.8,15.4,30.17,WSW,244,5.0,12.0,28,0.00,,,0.00,717.0,meteohub,2013-02-17 19:13:00,
2013-02-17 14:18:00,46.9,14.7,30.18,West,278,5.0,12.0,27,0.00,,,0.00,580.0,meteohub,2013-02-17 19:18:00,
2013-02-17 14:23:00,46.8,14.5,30.17,South,169,0.0,8.0,27,0.00,,,0.00,624.0,meteohub,2013-02-17 19:23:00,
2013-02-17 14:28:00,46.9,13.8,30.18,West,261,3.0,8.0,26,0.00,,,0.00,232.0,meteohub,2013-02-17 19:28:00,
2013-02-17 14:33:00,46.6,14.4,30.17,West,275,3.0,9.0,27,0.00,,,0.00,272.0,meteohub,2013-02-17 19:33:00,
2013-02-17 14:38:00,46.6,15.3,30.17,West,265,4.0,9.0,28,0.00,,,0.00,272.0,meteohub,2013-02-17 19:38:00,
2013-02-17 14:43:00,46.6,14.4,30.17,WNW,287,3.0,10.0,27,0.00,,,0.00,281.0,meteohub,2013-02-17 19:43:00,
2013-02-17 14:48:00,46.9,14.7,30.17,West,267,3.0,10.0,27,0.00,,,0.00,529.0,meteohub,2013-02-17 19:48:00,
2013-02-17 14:53:00,46.9,14.7,30.17,WSW,244,4.0,11.0,27,0.00,,,0.00,246.0,meteohub,2013-02-17 19:53:00,
2013-02-17 14:58:00,47.7,16.2,30.17,WNW,300,3.0,11.0,28,0.00,,,0.00,359.0,meteohub,2013-02-17 19:58:00,
2013-02-17 15:03:00,47.7,15.3,30.17,West,259,3.0,11.0,27,0.00,,,0.00,503.0,meteohub,2013-02-17 20:03:00,
2013-02-17 15:08:00,46.9,14.7,30.17,NNW,342,2.0,7.0,27,0.00,,,0.00,281.0,meteohub,2013-02-17 20:08:00,
2013-02-17 15:13:00,47.3,15.1,30.17,NNW,341,2.0,7.0,27,0.00,,,0.00,471.0,meteohub,2013-02-17 20:13:00,
2013-02-17 15:18:00,46.8,14.5,30.17,WSW,237,1.0,9.0,27,0.00,,,0.00,352.0,meteohub,2013-02-17 20:18:00,
2013-02-17 15:23:00,46.8,15.4,30.17,WNW,282,4.0,12.0,28,0.00,,,0.00,425.0,meteohub,2013-02-17 20:23:00,
2013-02-17 15:28:00,47.1,14.9,30.17,WNW,294,2.0,12.0,27,0.00,,,0.00,83.0,meteohub,2013-02-17 20:28:00,
2013-02-17 15:33:00,46.9,14.7,30.17,West,275,9.0,12.0,27,0.00,,,0.00,84.0,meteohub,2013-02-17 20:33:00,
2013-02-17 15:38:00,46.6,12.6,30.17,North,11,5.0,8.0,25,0.00,,,0.00,97.0,meteohub,2013-02-17 20:38:00,
2013-02-17 15:43:00,46.0,13.1,30.17,NNE,14,3.0,9.0,26,0.00,,,0.00,214.0,meteohub,2013-02-17 20:43:00,
2013-02-17 15:48:00,46.6,14.4,30.17,NW,323,1.0,9.0,27,0.00,,,0.00,244.0,meteohub,2013-02-17 20:48:00,
2013-02-17 15:53:00,46.8,13.6,30.18,West,277,1.0,8.0,26,0.00,,,0.00,176.0,meteohub,2013-02-17 20:53:00,
2013-02-17 15:58:00,46.2,14.0,30.18,NNW,334,1.0,8.0,27,0.00,,,0.00,188.0,meteohub,2013-02-17 20:58:00,
2013-02-17 16:04:00,46.2,14.0,30.18,WSW,248,3.0,8.0,27,0.00,,,0.00,139.0,meteohub,2013-02-17 21:04:00,
2013-02-17 16:09:00,46.4,14.2,30.18,NW,319,7.0,7.0,27,0.00,,,0.00,37.0,meteohub,2013-02-17 21:09:00,
2013-02-17 16:14:00,46.6,14.4,30.18,NNW,331,3.0,8.0,27,0.00,,,0.00,83.0,meteohub,2013-02-17 21:14:00,
2013-02-17 16:19:00,46.2,14.0,30.18,West,265,1.0,11.0,27,0.00,,,0.00,120.0,meteohub,2013-02-17 21:19:00,
2013-02-17 16:24:00,46.0,14.7,30.18,West,266,2.0,11.0,28,0.00,,,0.00,69.0,meteohub,2013-02-17 21:24:00,
2013-02-17 16:29:00,46.6,14.4,30.18,SW,227,2.0,8.0,27,0.00,,,0.00,51.0,meteohub,2013-02-17 21:29:00,
2013-02-17 16:34:00,46.6,15.3,30.18,WNW,288,2.0,7.0,28,0.00,,,0.00,35.0,meteohub,2013-02-17 21:34:00,
2013-02-17 16:39:00,46.4,15.1,30.18,West,272,3.0,7.0,28,0.00,,,0.00,44.0,meteohub,2013-02-17 21:39:00,
2013-02-17 16:44:00,46.0,14.0,30.18,NW,307,2.0,9.0,27,0.00,,,0.00,40.0,meteohub,2013-02-17 21:44:00,
2013-02-17 16:49:00,46.6,14.4,30.18,NW,315,2.0,9.0,27,0.00,,,0.00,121.0,meteohub,2013-02-17 21:49:00,
2013-02-17 16:54:00,46.2,14.0,30.18,WNW,294,3.0,9.0,27,0.00,,,0.00,51.0,meteohub,2013-02-17 21:54:00,
2013-02-17 16:59:00,46.0,14.0,30.19,WNW,287,2.0,10.0,27,0.00,,,0.00,104.0,meteohub,2013-02-17 21:59:00,
2013-02-17 17:04:00,45.9,13.8,30.19,WSW,254,1.0,10.0,27,0.00,,,0.00,60.0,meteohub,2013-02-17 22:04:00,
2013-02-17 17:09:00,46.0,15.6,30.19,NW,320,2.0,10.0,29,0.00,,,0.00,37.0,meteohub,2013-02-17 22:09:00,
2013-02-17 17:14:00,45.9,15.4,30.19,NNW,331,2.0,8.0,29,0.00,,,0.00,46.0,meteohub,2013-02-17 22:14:00,
2013-02-17 17:19:00,45.9,15.4,30.19,NW,311,1.0,6.0,29,0.00,,,0.00,44.0,meteohub,2013-02-17 22:19:00,
2013-02-17 17:24:00,45.3,14.9,30.19,West,271,0.0,5.0,29,0.00,,,0.00,33.0,meteohub,2013-02-17 22:24:00,
2013-02-17 17:29:00,45.3,14.9,30.19,WSW,246,0.0,5.0,29,0.00,,,0.00,26.0,meteohub,2013-02-17 22:29:00,
2013-02-17 17:34:00,45.1,15.6,30.19,West,278,1.0,4.0,30,0.00,,,0.00,19.0,meteohub,2013-02-17 22:34:00,
2013-02-17 17:39:00,45.0,15.4,30.20,West,274,2.0,4.0,30,0.00,,,0.00,16.0,meteohub,2013-02-17 22:39:00,
2013-02-17 17:44:00,44.8,15.3,30.20,WSW,253,0.0,5.0,30,0.00,,,0.00,14.0,meteohub,2013-02-17 22:44:00,
2013-02-17 17:49:00,44.2,15.4,30.20,West,281,2.0,5.0,31,0.00,,,0.00,11.0,meteohub,2013-02-17 22:49:00,
2013-02-17 17:54:00,44.1,16.2,30.20,WNW,300,0.0,5.0,32,0.00,,,0.00,9.0,meteohub,2013-02-17 22:54:00,
2013-02-17 17:59:00,43.9,16.0,30.20,NNW,339,1.0,4.0,32,0.00,,,0.00,7.0,meteohub,2013-02-17 22:59:00,
2013-02-17 18:04:00,43.3,16.2,30.20,WNW,284,1.0,4.0,33,0.00,,,0.00,5.0,meteohub,2013-02-17 23:04:00,
2013-02-17 18:09:00,43.2,16.7,30.20,West,262,0.0,4.0,34,0.00,,,0.00,0.0,meteohub,2013-02-17 23:09:00,
2013-02-17 18:14:00,42.8,17.1,30.21,West,269,0.0,3.0,35,0.00,,,0.00,0.0,meteohub,2013-02-17 23:14:00,
2013-02-17 18:19:00,42.4,16.7,30.21,West,269,0.0,3.0,35,0.00,,,0.00,0.0,meteohub,2013-02-17 23:19:00,
2013-02-17 18:24:00,41.7,17.4,30.22,West,269,0.0,3.0,37,0.00,,,0.00,0.0,meteohub,2013-02-17 23:24:00,
2013-02-17 18:29:00,41.5,17.2,30.22,West,269,0.0,3.0,37,0.00,,,0.00,0.0,meteohub,2013-02-17 23:29:00,
2013-02-17 18:34:00,40.6,18.1,30.22,West,269,0.0,1.0,40,0.00,,,0.00,0.0,meteohub,2013-02-17 23:34:00,
2013-02-17 18:39:00,40.1,18.3,30.22,West,269,0.0,1.0,41,0.00,,,0.00,0.0,meteohub,2013-02-17 23:39:00,
2013-02-17 18:44:00,39.7,19.0,30.22,West,269,0.0,0.0,43,0.00,,,0.00,0.0,meteohub,2013-02-17 23:44:00,
2013-02-17 18:49:00,39.2,19.6,30.22,West,269,0.0,0.0,45,0.00,,,0.00,0.0,meteohub,2013-02-17 23:49:00,
2013-02-17 18:54:00,38.7,19.6,30.22,West,269,0.0,0.0,46,0.00,,,0.00,0.0,meteohub,2013-02-17 23:54:00,
2013-02-17 18:59:00,38.5,19.9,30.23,West,269,0.0,0.0,47,0.00,,,0.00,0.0,meteohub,2013-02-17 23:59:00,
2013-02-17 19:04:00,37.8,20.3,30.23,West,269,0.0,0.0,49,0.00,,,0.00,0.0,meteohub,2013-02-18 00:04:00,
2013-02-17 19:09:00,37.4,20.5,30.23,West,269,0.0,1.0,50,0.00,,,0.00,0.0,meteohub,2013-02-18 00:09:00,
2013-02-17 19:14:00,37.0,20.7,30.23,West,269,0.0,1.0,51,0.00,,,0.00,0.0,meteohub,2013-02-18 00:14:00,
2013-02-17 19:19:00,36.9,20.5,30.23,West,269,0.0,1.0,51,0.00,,,0.00,0.0,meteohub,2013-02-18 00:19:00,
2013-02-17 19:24:00,36.5,21.0,30.24,West,269,0.0,0.0,53,0.00,,,0.00,0.0,meteohub,2013-02-18 00:24:00,
2013-02-17 19:29:00,36.3,20.8,30.24,West,269,0.0,0.0,53,0.00,,,0.00,0.0,meteohub,2013-02-18 00:29:00,
2013-02-17 19:34:00,36.1,21.0,30.24,West,269,0.0,0.0,54,0.00,,,0.00,0.0,meteohub,2013-02-18 00:34:00,
2013-02-17 19:39:00,35.6,21.0,30.25,West,269,0.0,0.0,55,0.00,,,0.00,0.0,meteohub,2013-02-18 00:39:00,
2013-02-17 19:44:00,35.4,21.7,30.24,West,269,0.0,0.0,57,0.00,,,0.00,0.0,meteohub,2013-02-18 00:44:00,
2013-02-17 19:49:00,35.1,21.7,30.25,West,269,0.0,0.0,58,0.00,,,0.00,0.0,meteohub,2013-02-18 00:49:00,
2013-02-17 19:54:00,34.7,21.4,30.25,West,269,0.0,0.0,58,0.00,,,0.00,0.0,meteohub,2013-02-18 00:54:00,
2013-02-17 19:59:00,34.3,21.9,30.25,West,269,0.0,0.0,60,0.00,,,0.00,0.0,meteohub,2013-02-18 00:59:00,
2013-02-17 20:04:00,34.5,22.5,30.25,West,269,0.0,0.0,61,0.00,,,0.00,0.0,meteohub,2013-02-18 01:04:00,
2013-02-17 20:09:00,34.3,22.3,30.26,West,269,0.0,0.0,61,0.00,,,0.00,0.0,meteohub,2013-02-18 01:09:00,
2013-02-17 20:15:00,34.2,22.5,30.26,West,269,0.0,0.0,62,0.00,,,0.00,0.0,meteohub,2013-02-18 01:15:00,
2013-02-17 20:20:00,33.6,22.8,30.26,West,269,0.0,0.0,64,0.00,,,0.00,0.0,meteohub,2013-02-18 01:20:00,
2013-02-17 20:25:00,33.3,22.8,30.26,West,269,0.0,0.0,65,0.00,,,0.00,0.0,meteohub,2013-02-18 01:25:00,
2013-02-17 20:30:00,33.1,22.6,30.26,West,269,0.0,0.0,65,0.00,,,0.00,0.0,meteohub,2013-02-18 01:30:00,
2013-02-17 20:35:00,33.1,23.0,30.27,West,269,0.0,0.0,66,0.00,,,0.00,0.0,meteohub,2013-02-18 01:35:00,
2013-02-17 20:40:00,33.1,22.6,30.27,West,269,0.0,0.0,65,0.00,,,0.00,0.0,meteohub,2013-02-18 01:40:00,
2013-02-17 20:45:00,32.5,22.8,30.27,West,269,0.0,0.0,67,0.00,,,0.00,0.0,meteohub,2013-02-18 01:45:00,
2013-02-17 20:50:00,32.2,22.8,30.27,West,269,0.0,0.0,68,0.00,,,0.00,0.0,meteohub,2013-02-18 01:50:00,
2013-02-17 20:55:00,32.4,23.0,30.27,West,269,0.0,0.0,68,0.00,,,0.00,0.0,meteohub,2013-02-18 01:55:00,
2013-02-17 21:00:00,32.4,23.4,30.27,West,269,0.0,0.0,69,0.00,,,0.00,0.0,meteohub,2013-02-18 02:00:00,
2013-02-17 21:05:00,32.4,23.7,30.27,West,269,0.0,1.0,70,0.00,,,0.00,0.0,meteohub,2013-02-18 02:05:00,
2013-02-17 21:10:00,32.2,23.5,30.27,West,269,0.0,1.0,70,0.00,,,0.00,0.0,meteohub,2013-02-18 02:10:00,
2013-02-17 21:15:00,31.8,23.2,30.28,West,269,0.0,1.0,70,0.00,,,0.00,0.0,meteohub,2013-02-18 02:15:00,
2013-02-17 21:20:00,31.6,23.4,30.28,West,269,0.0,0.0,71,0.00,,,0.00,0.0,meteohub,2013-02-18 02:20:00,
2013-02-17 21:25:00,31.8,23.5,30.28,West,269,0.0,0.0,71,0.00,,,0.00,0.0,meteohub,2013-02-18 02:25:00,
2013-02-17 21:30:00,31.5,23.5,30.28,West,269,0.0,0.0,72,0.00,,,0.00,0.0,meteohub,2013-02-18 02:30:00,
2013-02-17 21:35:00,31.3,23.4,30.28,West,269,0.0,0.0,72,0.00,,,0.00,0.0,meteohub,2013-02-18 02:35:00,
2013-02-17 21:40:00,31.3,23.7,30.29,West,269,0.0,0.0,73,0.00,,,0.00,0.0,meteohub,2013-02-18 02:40:00,
2013-02-17 21:45:00,31.1,23.7,30.28,West,269,0.0,0.0,74,0.00,,,0.00,0.0,meteohub,2013-02-18 02:45:00,
2013-02-17 21:50:00,30.9,23.5,30.29,West,269,0.0,0.0,74,0.00,,,0.00,0.0,meteohub,2013-02-18 02:50:00,
2013-02-17 21:55:00,30.7,23.4,30.29,West,269,0.0,0.0,74,0.00,,,0.00,0.0,meteohub,2013-02-18 02:55:00,
2013-02-17 22:00:00,30.9,23.9,30.29,West,269,0.0,0.0,75,0.00,,,0.00,0.0,meteohub,2013-02-18 03:00:00,
2013-02-17 22:05:00,30.7,23.7,30.29,West,269,0.0,0.0,75,0.00,,,0.00,0.0,meteohub,2013-02-18 03:05:00,
2013-02-17 22:10:00,30.4,23.4,30.29,West,269,0.0,0.0,75,0.00,,,0.00,0.0,meteohub,2013-02-18 03:10:00,
2013-02-17 22:15:00,30.4,23.7,30.29,West,269,0.0,0.0,76,0.00,,,0.00,0.0,meteohub,2013-02-18 03:15:00,
2013-02-17 22:20:00,30.7,23.7,30.29,West,269,0.0,0.0,75,0.00,,,0.00,0.0,meteohub,2013-02-18 03:20:00,
2013-02-17 22:25:00,30.6,23.9,30.29,West,269,0.0,0.0,76,0.00,,,0.00,0.0,meteohub,2013-02-18 03:25:00,
2013-02-17 22:30:00,30.6,23.9,30.29,West,269,0.0,0.0,76,0.00,,,0.00,0.0,meteohub,2013-02-18 03:30:00,
2013-02-17 22:35:00,30.0,23.7,30.30,West,269,0.0,0.0,77,0.00,,,0.00,0.0,meteohub,2013-02-18 03:35:00,
2013-02-17 22:40:00,30.4,24.3,30.30,West,269,0.0,0.0,78,0.00,,,0.00,0.0,meteohub,2013-02-18 03:40:00,
2013-02-17 22:45:00,30.2,23.9,30.29,West,269,0.0,0.0,77,0.00,,,0.00,0.0,meteohub,2013-02-18 03:45:00,
2013-02-17 22:50:00,30.0,23.7,30.29,West,269,0.0,0.0,77,0.00,,,0.00,0.0,meteohub,2013-02-18 03:50:00,
2013-02-17 22:55:00,29.8,23.5,30.30,West,269,0.0,0.0,77,0.00,,,0.00,0.0,meteohub,2013-02-18 03:55:00,
2013-02-17 23:00:00,29.8,24.1,30.30,West,269,0.0,1.0,79,0.00,,,0.00,0.0,meteohub,2013-02-18 04:00:00,
2013-02-17 23:05:00,29.8,24.1,30.30,West,269,0.0,1.0,79,0.00,,,0.00,0.0,meteohub,2013-02-18 04:05:00,
2013-02-17 23:10:00,29.7,23.9,30.30,West,269,0.0,0.0,79,0.00,,,0.00,0.0,meteohub,2013-02-18 04:10:00,
2013-02-17 23:15:00,29.7,23.9,30.30,West,269,0.0,0.0,79,0.00,,,0.00,0.0,meteohub,2013-02-18 04:15:00,
2013-02-17 23:20:00,29.8,24.1,30.30,South,190,1.0,2.0,79,0.00,,,0.00,0.0,meteohub,2013-02-18 04:20:00,
2013-02-17 23:25:00,29.8,23.9,30.30,South,190,0.0,2.0,78,0.00,,,0.00,0.0,meteohub,2013-02-18 04:25:00,
2013-02-17 23:30:00,29.7,23.7,30.30,South,190,0.0,2.0,78,0.00,,,0.00,0.0,meteohub,2013-02-18 04:30:00,
2013-02-17 23:35:00,29.7,23.9,30.30,South,190,0.0,2.0,79,0.00,,,0.00,0.0,meteohub,2013-02-18 04:35:00,
2013-02-17 23:40:00,29.8,23.9,30.30,South,190,0.0,0.0,78,0.00,,,0.00,0.0,meteohub,2013-02-18 04:40:00,
2013-02-17 23:45:00,29.7,23.7,30.30,South,190,0.0,0.0,78,0.00,,,0.00,0.0,meteohub,2013-02-18 04:45:00,
2013-02-17 23:50:00,29.7,23.9,30.30,South,190,0.0,0.0,79,0.00,,,0.00,0.0,meteohub,2013-02-18 04:50:00,
2013-02-17 23:55:00,29.3,23.5,30.30,South,190,0.0,0.0,79,0.00,,,0.00,0.0,meteohub,2013-02-18 04:55:00,